Location: Abundant Faith Church of God in Christ
(32.7899°N, 96.8567°W)
Time: 08:37:27
(UTC+00:00)

Daily predictions for brighter satellites

Satellite Brightness Start Highest point End
(mag) Time Altitude Azimuth Time Altitude Azimuth Time Altitude Azimuth
NOSS 3-1 (C) 2.6 12:00:34 11° SW 12:04:48 64° WNW 12:09:46 10° NNE
DELTA 2 R/B(2) 4.5 12:06:45 26° NW 12:08:00 46° NNE 12:09:54 10° E
Cosmos 1980 Rocket 2.1 12:02:33 10° SSW 12:08:03 63° WNW 12:13:37 10° NNE
Exosat Rocket 3.8 12:02:50 10° NNW 12:08:11 71° ENE 12:13:09 10° SSE
NOSS 3-1 (A) 4.1 12:05:09 10° S 12:09:14 40° ESE 12:13:46 10° NE
Cosmos 1674 Rocket 3.4 12:08:43 10° N 12:13:08 78° W 12:17:30 10° S
IRS-1D 3.9 12:08:37 10° N 12:13:25 40° WNW 12:18:08 10° SW
COSMOS 2455 3.2 12:07:54 10° SW 12:13:32 41° WNW 12:19:13 10° N
USA 215 4.0 12:09:14 10° ESE 12:15:31 50° NE 12:21:49 10° NNW
Cosmos 1697 Rocket 3.9 12:18:26 17° W 12:20:40 21° WNW 12:24:49 10° NNW
Cosmos 1503 Rocket 4.1 12:16:36 10° SSW 12:21:35 51° WNW 12:26:38 10° N
Cosmos 2084 3.2 12:20:00 10° NNW 12:24:03 83° WSW 12:28:04 10° SSE
SKYMED 2 4.2 12:20:51 10° SSW 12:24:48 35° W 12:28:47 10° NNW
Cosmos 1484 Rocket 2.4 12:23:39 10° N 12:27:09 84° W 12:30:38 10° SSW
Cosmos 2297 Rocket 3.1 12:23:55 10° NW 12:28:35 27° WSW 12:33:13 10° SSW
COSMO-SKYMED 1 2.6 12:28:06 10° S 12:32:05 51° W 12:36:05 10° NNW
IGS 5A 3.5 12:28:43 10° N 12:32:33 49° WNW 12:36:22 10° SSW
Cosmos 1570 Rocket 4.3 12:30:07 10° NNW 12:35:02 43° WSW 12:39:55 10° S
Cosmos 2219 4.4 12:33:21 10° N 12:38:48 44° ENE 12:44:10 10° SE
CORIOLIS 4.4 12:35:17 10° NNE 12:40:40 75° ESE 12:46:00 10° S
Landsat 7 3.9 12:41:31 10° NNE 12:46:11 84° E 12:50:49 10° S
Cosmos 1782 Rocket 3.5 12:43:48 10° SSW 12:48:06 64° W 12:52:29 10° N
Cosmos 2173 Rocket 4.4 12:42:37 10° S 12:48:55 72° E 12:55:16 10° N
Cosmos 1908 Rocket 4.4 12:45:26 10° SW 12:49:07 27° WNW 12:52:51 10° NNW
Cosmos 1975 Rocket 4.5 12:46:19 10° N 12:50:23 42° E 12:54:27 10° SSE
Cosmos 2208 Rocket 4.5 12:46:54 10° NNW 12:52:01 44° WSW 12:57:08 10° S
